SCP
0 0 0 1 1 1 1 0 0 0 0 0 0 0 0 0 0 0 0 0 0 0 0 0 0 0 0 0 0 0 0 0 0 0 0 0 0 0
1 1 1 1 1 1 1 1 1 0 0 0 0 0 0 0 0 0 0 0 0 0 0 0 0 0 0 0 0 0 0 0 0 0 0 0 0 0
1 1 1 1 1 1 1 1 1 1 0 0 0 0 0 0 0 0 0 0 0 0 0 0 0 0 0 0 0 0 0 0 0 0 0 0 0 0
1 1 1 1 1 1 1 1 1 1 1 1 1 0 0 0 0 0 0 0 0 0 0 0 0 0 0 0 0 0 0 0 0 0 0 0 0 0
1 1 1 1 1 1 1 1 1 1 1 1 1 1 0 0 0 0 0 0 0 0 0 0 0 0 0 0 0 0 0 0 0 0 0 0 0 0
1 1 1 1 1 1 1 1 1 1 1 1 0 0 0 0 0 0 0 0 0 0 0 0 0 0 0 0 0 0 0 0 0 0 0 0 0 0
1 1 1 1 1 1 0 0 0 0 0 0 0 0 0 0 0 0 0 0 0 0 0 0 0 0 0 0 0 0 0 0 0 0 0 0 0 0
1 1 1 1 1 0 0 0 0 0 0 0 0 0 0 0 0 0 0 0 0 0 0 0 0 0 0 0 0 0 0 0 0 0 0 0 0 0
1 1 1 1 0 0 0 0 0 0 0 0 0 0 0 0 0 0 0 0 0 0 0 0 0 0 0 0 0 0 0 0 0 0 0 0 0 0
0 1 1 1 1 0 0 0 0 0 0 0 0 0 0 0 0 0 0 0 0 0 0 0 0 0 0 0 0 0 0 0 0 0 0 0 0 0
0 0 1 1 0 0 0 0 0 0 0 0 0 0 0 0 0 0 0 0 0 0 0 0 0 0 0 0 0 0 0 0 0 0 0 0 0 0
0 0 0 0 0 0 0 0 0 0 0 0 0 0 0 0 0 0 0 0 0 0 0 0 0 0 0 0 0 0 0 0 0 0 0 0 0 0
0 0 0 0 0 0 0 0 0 0 0 0 0 0 0 0 0 0 0 0 0 0 0 0 0 0 0 0 0 0 0 0 0 0 0 0 0 0
0 0 0 0 0 0 0 0 0 0 0 0 0 0 0 0 0 0 0 0 0 0 0 0 0 0 0 0 0 0 0 0 0 0 0 0 0 0
0 0 0 0 0 0 0 0 0 0 0 0 0 0 0 0 0 0 0 0 0 0 0 0 0 0 0 0 0 0 0 0 0 0 0 0 0 0
0 0 0 0 0 0 0 0 0 0 0 0 0 0 0 0 0 0 0 0 0 0 0 0 0 0 0 0 0 0 0 0 0 0 0 0 0 0
0 0 0 0 0 0 0 0 0 0 0 0 0 0 0 0 0 0 0 0 0 0 0 0 0 0 0 0 0 0 0 0 0 0 0 0 0 0
0 0 0 0 0 0 0 0 0 0 0 0 0 0 0 0 0 0 0 0 0 0 0 0 0 0 0 0 0 0 0 0 0 0 0 0 0 0
0 0 0 0 0 0 0 0 0 0 0 0 0 0 0 0 0 0 0 0 0 0 0 0 0 0 0 0 0 0 0 0 0 0 0 0 0 0
0 0 0 0 0 0 0 0 0 0 0 0 0 0 0 0 0 0 0 0 0 0 0 0 0 0 0 0 0 0 0 0 0 0 0 0 0 0
0 0 0 0 0 0 0 0 0 0 0 0 0 0 0 0 0 0 0 0 0 0 0 0 0 0 0 0 0 0 0 0 0 0 0 0 0 0
0 0 0 0 0 0 0 0 0 0 0 0 0 0 0 0 0 0 0 0 0 0 0 0 0 0 0 0 0 0 0 0 0 0 0 0 0 0
0 0 0 0 0 0 0 0 0 0 0 0 0 0 0 0 0 0 0 0 0 0 0 0 0 0 0 0 0 0 0 0 0 0 0 0 0 0
Wind_Speed
5 5 4 3 2 3 3 3 4 2 3 3 2 2 3 3 5 4 5 9 12 13 13 13 13 13 12 11 11 11 10 10 10 10 10 10 10 11
3 4 3 2 2 2 2 2 3 4 3 3 3 2 2 2 3 3 4 6 10 11 12 12 12 12 11 11 11 11 11 11 11 10 10 9 9 9
3 4 3 2 2 1 1 2 2 3 3 3 2 1 1 1 1 1 2 3 4 9 11 11 11 11 11 11 11 11 11 11 10 10 9 9 9 9
4 3 3 2 2 1 1 2 2 2 3 3 2 1 1 1 1 1 2 2 3 6 8 9 10 11 11 11 11 11 10 10 10 9 9 9 9 9
4 4 3 3 3 2 2 1 1 1 1 2 2 1 1 1 1 1 1 2 2 3 4 6 8 8 8 9 9 9 10 10 10 9 9 9 9 9
3 3 3 4 4 3 2 1 1 0 1 1 0 1 1 1 1 1 2 2 2 2 2 1 2 4 5 5 6 7 8 9 9 9 9 9 9 9
2 2 2 2 2 2 2 1 1 1 1 1 1 1 1 1 1 1 1 2 2 1 1 1 1 1 1 2 3 5 5 6 6 7 8 8 8 8
3 2 3 4 5 5 5 3 2 2 1 1 0 0 1 1 1 1 1 1 2 2 1 2 1 1 1 1 2 3 3 3 4 5 6 7 8 8
3 3 3 4 4 4 5 6 6 5 2 2 1 0 1 1 1 1 1 1 2 2 0 1 2 2 2 2 3 2 2 2 3 4 5 6 7 7
4 3 4 3 4 4 5 5 5 5 4 3 2 2 2 1 0 0 1 1 1 2 1 0 2 2 2 3 4 4 4 4 5 5 5 6 6 7
5 6 5 5 6 7 6 6 5 5 7 8 7 6 7 7 4 2 2 2 2 2 2 1 1 2 2 2 3 5 5 5 5 5 5 6 6 6
5 6 8 8 8 8 6 6 6 4 4 6 6 7 6 7 7 3 1 1 1 2 2 2 1 2 2 2 2 3 4 5 6 5 5 6 6 3
5 5 5 10 11 11 9 6 5 4 4 5 5 5 5 5 5 4 3 2 1 1 2 1 1 1 1 3 3 3 2 3 3 4 5 7 7 3
5 4 6 10 11 11 9 9 10 7 5 5 5 5 5 4 4 5 5 4 2 1 2 2 0 0 0 2 3 3 3 3 2 3 3 5 5 5
6 8 9 11 10 8 11 11 8 6 5 5 5 4 3 3 4 4 5 4 4 4 4 2 1 1 0 1 2 3 3 3 3 3 3 3 2 2
6 8 10 11 9 8 8 7 6 5 4 4 3 3 3 4 4 4 4 4 4 4 5 5 3 2 1 2 2 3 2 3 4 4 3 3 3 2
5 5 6 6 6 6 5 5 5 5 5 4 4 4 4 4 4 4 3 3 3 3 5 5 4 2 2 2 2 3 3 3 4 4 3 4 4 3
8 6 5 5 5 4 4 4 5 5 4 4 4 3 3 4 4 4 3 3 3 3 4 4 4 4 4 3 2 2 3 3 4 4 2 3 4 4
8 6 5 4 4 4 4 4 3 3 3 3 3 3 3 3 3 3 4 3 3 3 4 3 3 3 3 5 6 2 2 4 4 4 3 3 4 4
5 4 4 4 3 3 3 3 3 3 3 3 3 3 3 3 3 3 3 3 3 3 4 4 3 3 2 3 4 5 5 3 3 4 4 3 3 4
4 4 3 3 3 3 3 3 3 3 3 3 3 3 3 3 3 3 3 5 3 3 4 5 5 7 3 1 3 5 5 6 4 3 3 3 4 3
4 3 3 3 3 3 3 3 3 3 3 3 3 3 3 3 3 3 3 3 3 3 4 5 6 5 3 2 3 5 5 6 6 7 4 2 2 2
3 3 3 3 3 3 3 3 3 3 3 3 3 3 3 3 3 3 3 3 3 4 4 5 5 4 3 3 3 3 5 5 5 5 5 8 7 5
Wind_Direction
205 204 206 214 198 191 180 170 170 213 260 269 267 252 228 210 218 209 216 218 218 220 222 224 225 228 229 231 234 236 239 241 244 246 247 248 249 251
195 194 202 207 196 189 185 190 184 183 229 256 252 261 246 224 205 208 221 226 223 224 227 229 230 231 232 234 234 235 236 238 240 241 241 243 245 249
194 187 199 195 195 197 186 196 192 176 213 259 262 275 242 230 230 229 232 226 231 228 230 231 233 234 235 236 236 236 237 238 239 239 241 243 245 248
192 183 199 200 197 202 201 206 201 194 198 241 283 318 296 241 222 246 255 241 237 234 231 233 234 236 238 239 239 238 237 237 237 239 241 243 245 248
186 188 196 184 203 207 201 209 222 211 184 202 261 297 318 348 12 336 326 298 274 259 236 235 240 243 244 243 242 240 237 236 236 238 240 243 246 249
170 179 186 189 198 190 186 193 184 135 123 139 274 326 331 332 45 360 332 316 299 316 315 282 263 258 256 252 251 250 246 241 238 239 241 243 246 250
136 139 139 133 135 140 146 147 127 105 92 80 334 1 351 357 333 308 293 301 312 328 337 332 339 339 286 263 262 264 256 248 246 245 247 250 251 253
129 119 101 81 78 82 85 91 111 134 155 142 192 296 294 298 313 321 305 349 314 318 0 313 355 330 302 277 298 285 279 275 268 261 256 255 255 257
101 96 87 75 78 78 72 63 56 52 85 135 122 281 302 292 295 327 308 231 249 285 40 304 341 336 326 339 338 342 339 312 287 280 276 272 272 273
83 95 96 83 67 77 77 67 58 44 46 64 79 41 18 342 321 260 273 310 308 338 29 346 340 332 337 344 355 2 352 338 326 316 308 299 293 288
71 69 76 74 63 74 81 77 63 44 48 58 60 57 50 41 39 56 38 47 357 332 1 41 332 326 325 329 349 2 351 336 331 327 321 314 308 304
67 61 60 67 63 68 80 81 71 42 38 45 43 35 35 33 34 46 61 72 50 332 337 23 339 359 340 319 325 338 342 340 337 327 319 316 318 316
72 61 55 64 65 63 66 68 67 66 60 55 47 37 31 27 22 21 30 65 75 340 325 17 2 359 333 309 317 322 334 331 332 325 322 322 321 312
80 72 69 68 65 61 61 58 57 59 58 53 48 36 25 14 10 14 19 28 48 47 348 34 45 298 310 308 303 314 321 322 320 313 315 321 319 313
80 81 75 68 62 58 56 57 56 56 57 57 47 27 7 0 7 11 11 18 23 19 16 20 17 310 206 239 280 297 312 315 317 318 317 318 309 317
72 68 64 61 60 56 50 48 48 53 62 59 40 17 11 16 18 15 15 10 19 358 349 355 355 350 307 283 269 292 300 303 313 317 314 309 303 295
77 65 59 57 57 52 48 42 39 39 43 37 36 27 20 20 12 7 14 19 21 352 341 339 337 332 279 258 296 299 304 301 296 309 320 315 304 297
79 73 67 63 62 57 54 45 37 34 31 35 35 31 26 21 12 8 14 18 8 348 337 331 343 353 354 331 268 284 305 299 302 307 305 305 305 308
78 74 70 65 61 57 55 53 39 23 27 35 34 24 19 15 12 6 3 3 356 342 331 334 352 7 356 331 311 312 302 309 314 313 305 291 291 300
73 78 73 65 59 55 52 49 40 29 28 27 24 18 16 12 6 1 359 355 344 338 337 339 344 339 302 282 290 304 320 312 311 313 311 310 300 304
68 67 68 66 59 55 51 49 46 36 24 21 16 8 4 6 360 351 349 351 353 346 340 327 308 313 299 319 324 317 315 327 326 311 312 317 321 327
73 68 60 61 59 56 52 49 41 28 16 13 1 356 355 358 351 344 343 341 336 326 316 311 319 334 356 354 324 312 316 326 337 347 351 342 314 317
81 76 67 60 53 51 50 48 41 19 7 360 353 348 348 346 338 337 333 331 328 325 324 324 332 340 335 328 323 317 323 329 334 343 341 344 344 331